Temp
9 10 9 8 8 9 9 10 9 10 10 10 10 10 12 12 12 13 12 14 14 14 15 16 17 17 18 16 16 14 13 15 16 17 18 17 18 17 17 18 18 18 17 17 18
10 10 10 9 8 8 9 9 9 10 10 9 10 10 11 12 12 11 11 13 14 14 16 16 15 16 14 16 15 13 13 16 15 16 17 17 17 16 18 17 19 18 17 18 18
10 11 10 10 9 9 8 9 9 9 9 9 10 11 10 13 12 10 10 11 13 15 16 16 16 16 15 15 15 15 15 15 15 15 16 16 17 14 17 18 17 18 17 16 17
10 10 10 10 10 10 9 9 9 10 10 11 11 11 10 12 11 10 9 12 13 15 16 17 15 14 14 15 15 15 15 16 15 15 16 16 15 15 15 18 16 15 14 15 14
10 9 10 10 10 10 10 10 10 10 10 11 10 11 10 10 9 10 12 14 15 16 16 15 15 14 14 15 15 15 15 14 14 14 15 15 15 14 13 13 13 13 14 13 14
9 9 9 10 10 10 10 10 10 10 10 10 10 10 10 10 9 10 13 15 16 17 15 15 15 14 13 14 14 14 14 14 14 15 14 15 15 14 16 13 14 15 15 14 13
9 9 10 10 10 9 9 9 9 9 10 10 10 11 9 8 10 12 14 15 16 16 13 14 15 14 14 14 14 14 14 15 14 14 14 13 16 13 14 14 14 14 14 13 13
10 9 10 9 10 10 9 10 10 9 9 11 11 11 9 11 12 13 14 15 16 16 16 15 16 12 13 13 12 13 12 14 14 14 14 15 15 16 13 14 14 13 13 13 12
10 9 8 10 10 9 10 10 10 10 11 11 11 10 9 11 11 13 13 13 15 16 16 16 15 12 12 11 10 11 11 14 15 14 14 14 14 15 13 13 12 12 12 12 11
10 10 10 10 11 10 11 10 10 11 11 12 11 10 10 9 10 12 14 14 13 14 13 11 9 10 9 9 11 13 14 14 15 14 13 13 11 13 13 12 11 11 10 10 10
10 11 11 10 11 11 11 11 9 9 9 8 9 9 9 10 11 13 13 14 13 11 11 10 8 7 12 12 12 13 14 14 14 14 13 11 11 12 13 11 10 9 9 9 9
11 11 11 11 12 11 11 7 7 9 8 9 10 9 9 9 12 12 14 13 12 11 12 9 9 11 12 13 13 13 14 13 13 14 13 12 11 13 12 11 10 8 9 8 8
11 11 11 11 11 11 9 8 9 10 7 9 9 9 9 11 11 11 12 12 11 10 10 9 11 12 13 11 12 11 12 12 12 12 12 10 10 12 11 9 9 9 8 8 8
12 11 11 11 11 9 9 9 9 9 6 9 11 11 12 11 12 13 12 12 11 10 10 10 12 12 12 12 12 13 12 12 12 10 10 10 9 11 12 10 9 8 7 7 8
12 11 11 12 11 9 9 9 9 9 7 11 11 13 12 11 12 12 13 12 11 12 11 11 12 11 12 12 12 13 12 12 12 11 6 10 5 10 11 12 10 8 8 7 8
12 11 11 11 10 9 9 9 9 7 6 7 11 11 12 11 12 11 12 12 12 11 10 11 12 12 12 12 12 12 12 10 9 8 5 10 8 10 8 13 13 10 8 8 8
12 11 11 10 9 10 9 8 7 6 9 9 11 11 11 11 12 11 11 10 10 8 10 10 11 12 12 12 12 12 9 6 7 5 8 10 7 10 12 11 11 11 10 8 8
13 12 11 11 10 9 9 6 6 7 8 11 11 11 11 11 12 12 11 9 11 10 8 7 8 12 12 12 12 13 10 6 9 7 6 9 8 10 12 11 10 10 9 8 8
14 13 12 10 10 9 6 4 6 8 10 10 11 11 11 12 12 11 11 10 11 11 10 10 10 12 12 13 12 12 9 10 8 6 9 6 8 10 11 10 10 9 9 8 8
13 12 11 10 9 9 6 7 9 10 11 12 12 12 11 12 12 11 11 12 12 12 11 11 10 11 12 12 11 12 10 10 8 8 9 7 7 10 9 13 11 10 9 8 8
12 10 11 10 10 6 5 7 11 11 12 12 12 12 12 12 11 11 11 12 12 12 12 12 8 10 12 10 10 10 10 9 9 9 11 10 10 8 10 12 13 11 10 9 9
9 10 11 11 7 4 5 10 12 11 11 11 11 12 12 12 12 11 12 12 11 11 11 12 9 8 10 12 11 10 10 9 8 8 9 11 11 12 11 12 11 11 11 9 9
7 7 11 11 7 7 10 11 11 11 11 12 12 13 13 13 13 12 13 13 11 11 11 11 8 7 10 11 10 10 10 10 9 9 12 9 10 12 11 11 10 10 9 9 9
7 8 7 5 6 8 10 11 11 11 12 12 12 13 13 12 12 13 12 12 11 12 12 11 8 9 9 12 10 10 10 10 10 9 10 11 10 13 12 11 10 9 9 8 8
6 8 7 6 9 10 10 10 11 11 11 11 12 11 12 12 12 11 12 11 11 12 10 10 8 6 7 8 9 9 10 9 9 11 10 13 12 14 12 11 11 10 10 10 9
8 8 6 7 8 11 10 10 11 12 10 11 10 12 10 11 11 11 11 11 10 9 9 8 9 8 7 8 8 8 9 9 10 11 11 11 12 14 15 14 13 12 10 10 10
7 8 7 8 8 9 9 11 11 11 12 11 10 11 10 10 10 11 10 10 11 9 8 7 7 7 7 8 8 9 10 10 10 9 11 10 12 14 13 13 11 11 9 10 10
Height
749 739 726 724 729 731 733 736 740 743 748 752 755 756 761 766 773 775 779 782 782 781 782 782 784 784 786 791 794 798 821 825 818 817 814 811 809 810 810 809 808 807 810 811 810
751 742 733 726 725 727 731 735 739 742 747 751 755 756 763 768 772 774 783 783 783 781 783 784 785 785 793 795 800 808 824 818 815 814 813 813 811 815 813 815 810 811 811 812 812
755 747 740 733 725 723 729 733 739 742 746 753 753 760 765 768 772 782 782 782 783 782 783 784 785 787 798 799 805 808 818 816 817 815 813 814 813 817 815 815 813 812 812 813 813
761 753 746 739 734 729 729 734 737 741 747 750 756 761 767 772 784 785 783 781 780 782 783 785 787 796 805 807 806 814 815 814 817 817 815 818 818 818 817 812 812 812 813 813 814
770 761 753 749 744 740 738 734 739 745 748 752 758 767 771 778 788 785 781 781 781 782 784 787 791 799 808 808 809 815 817 817 819 820 820 820 821 822 819 813 811 812 812 812 812
779 772 764 758 754 750 748 747 749 753 755 757 765 771 774 784 790 786 783 782 782 783 786 788 793 797 808 813 814 817 819 821 822 822 822 823 822 821 813 813 811 810 811 810 811
786 779 774 768 762 760 757 758 759 759 759 765 772 774 777 795 790 787 786 785 786 786 789 792 793 798 806 813 815 819 823 822 824 824 825 825 819 823 814 813 813 812 811 811 811
789 785 782 777 772 769 768 765 761 768 766 765 771 774 791 793 792 790 789 789 790 790 792 795 796 802 810 815 822 825 832 831 827 826 827 825 825 814 814 813 814 814 813 811 811
794 791 786 783 780 778 775 773 773 767 772 776 778 781 799 795 794 793 793 794 793 794 795 796 798 813 817 827 839 839 845 831 828 826 828 829 826 814 815 817 816 815 814 812 812
798 795 791 786 784 783 782 782 780 778 779 779 787 792 805 806 801 799 798 796 798 798 801 806 817 825 834 839 851 835 833 832 830 830 831 833 831 819 815 818 815 815 815 815 815
801 798 798 793 788 788 783 785 792 798 797 806 808 809 813 809 805 803 801 799 802 809 819 822 837 854 833 831 831 831 832 831 832 830 834 836 833 818 811 814 813 817 816 816 815
803 802 802 799 796 792 789 789 799 804 809 810 812 811 811 811 807 806 804 808 813 824 822 836 846 836 832 830 832 833 834 839 835 832 835 833 829 811 812 810 809 816 816 815 813
804 802 802 802 802 799 798 800 801 800 810 816 818 816 814 812 814 814 812 815 823 831 833 842 839 834 831 838 837 845 842 841 841 838 836 839 828 813 815 815 814 814 814 813 811
804 802 801 801 803 803 803 804 805 805 831 838 824 822 820 819 820 819 818 821 827 837 836 841 837 835 836 839 839 839 840 839 840 852 857 844 859 822 810 813 813 814 814 812 809
805 803 801 801 802 804 807 807 807 809 852 838 831 826 823 825 827 822 821 821 830 831 835 844 839 839 840 839 837 837 839 840 840 847 874 851 883 825 814 807 810 811 811 808 806
807 805 802 803 803 806 806 806 807 831 873 853 834 832 829 829 828 826 825 824 830 836 839 842 839 839 838 837 837 837 839 847 852 861 890 847 865 830 827 801 798 802 805 805 803
807 806 804 804 805 804 805 808 828 857 849 846 837 834 834 835 831 833 836 840 844 857 849 848 843 839 838 839 837 839 853 887 882 895 870 847 867 819 801 800 798 797 799 800 800
806 806 806 805 806 805 805 819 848 852 848 835 834 832 835 834 833 834 837 846 837 842 857 867 869 840 838 838 841 838 850 888 873 889 884 850 850 815 795 794 795 797 797 798 797
805 806 806 807 806 807 812 852 857 841 833 834 833 836 835 832 832 836 837 842 836 836 847 847 849 838 837 836 839 838 859 850 866 887 861 866 837 803 795 795 796 797 797 795 794
806 805 807 806 806 807 823 841 838 833 829 830 827 826 833 831 833 834 835 832 833 832 834 839 851 840 838 838 843 841 848 855 868 874 865 856 853 816 808 785 789 792 791 789 788
806 808 807 805 805 812 844 842 830 827 827 829 829 827 828 828 830 832 834 831 830 831 831 834 854 848 840 844 846 851 852 855 861 861 848 847 825 802 791 782 781 783 784 784 782
808 818 807 804 819 835 844 829 826 828 828 828 828 826 829 830 828 830 828 826 827 829 833 832 847 859 842 833 836 840 844 851 862 864 856 836 811 778 782 779 780 778 778 778 776
815 819 808 806 834 839 829 827 826 829 828 828 826 824 824 826 829 827 826 824 828 829 833 834 852 870 844 839 837 836 837 840 843 847 830 850 817 778 779 779 778 779 776 775 772
816 827 819 816 827 828 829 827 826 826 826 826 826 825 825 826 825 825 825 826 828 829 829 832 848 843 847 822 832 834 831 832 832 844 831 810 798 771 773 777 774 773 771 769 767
820 828 830 838 827 826 825 828 827 827 826 825 826 828 829 831 828 828 826 828 829 827 832 836 847 856 843 838 834 829 824 827 826 813 818 781 786 760 768 770 766 766 764 764 761
823 827 831 832 829 824 827 827 825 823 827 826 827 821 829 830 830 828 827 829 828 834 837 841 842 844 841 830 831 827 817 816 811 806 801 789 777 748 752 758 759 759 760 758 753
824 826 827 832 832 830 830 821 820 820 817 819 823 823 826 823 823 822 823 825 824 832 837 843 845 849 842 832 829 816 787 790 791 794 785 796 752 748 754 754 758 755 755 752 747
Wind_Speed
29 34 32 9 15 15 15 16 14 14 17 12 15 13 24 23 19 15 8 5 1 3 3 4 4 8 7 4 4 3 4 2 5 6 4 2 2 3 2 2 3 2 4 2 6
35 32 31 18 4 12 12 14 14 13 13 13 14 16 21 28 26 19 9 7 4 3 6 4 4 5 4 3 4 5 4 5 1 1 3 2 2 3 2 5 1 4 4 7 7
37 34 31 27 24 6 11 13 12 11 10 15 13 20 26 29 10 3 15 8 4 4 7 4 6 4 5 4 3 2 3 3 2 1 3 2 2 4 2 3 5 4 2 5 2
38 35 34 30 24 24 8 13 10 15 13 14 19 21 19 6 6 4 14 4 3 3 7 8 6 5 4 4 3 6 3 2 2 3 3 3 3 5 1 2 3 2 2 2 5
37 40 37 35 34 26 23 23 20 18 18 29 39 31 3 6 5 13 10 8 9 13 8 5 7 4 5 5 3 4 2 4 4 5 3 1 2 4 6 9 7 8 7 7 6
31 38 38 34 31 34 32 28 29 28 26 42 33 15 7 15 11 14 12 14 14 18 10 8 4 5 7 4 4 2 5 4 4 3 3 3 2 3 2 4 7 4 5 5 6
28 32 34 34 31 32 32 32 31 31 31 35 24 23 20 3 11 15 18 19 14 14 6 6 6 6 3 5 2 4 4 2 2 2 2 2 5 6 3 4 5 7 7 7 4
26 28 25 27 31 28 30 28 28 29 26 26 27 21 6 16 12 17 14 18 17 18 17 10 13 8 5 3 6 4 5 2 2 1 3 3 8 1 4 4 6 8 6 5 3
24 28 26 14 22 31 29 27 27 29 23 22 15 13 4 12 13 17 15 8 13 14 14 12 8 4 5 4 4 6 2 1 4 1 2 2 6 3 3 5 9 7 6 1 4
20 26 30 17 8 13 20 28 41 23 18 19 13 9 7 6 9 11 10 12 10 5 8 9 6 4 4 5 4 3 2 1 0 3 1 3 12 13 9 6 11 7 4 2 4
19 25 25 26 12 7 5 3 6 9 28 11 10 8 2 10 8 14 9 7 6 8 4 5 7 3 3 2 3 3 3 2 1 1 3 5 10 16 12 7 9 5 3 3 6
15 18 19 17 22 18 18 6 5 5 13 19 10 3 2 5 7 16 10 5 6 4 2 7 4 1 2 2 5 4 2 2 3 2 2 4 14 17 5 3 3 7 5 5 5
17 15 12 9 10 14 18 10 6 5 6 9 4 4 5 11 6 9 6 3 6 5 5 6 1 3 2 5 5 4 3 2 1 5 0 7 7 5 1 2 2 2 3 5 6
16 14 9 5 3 4 5 3 2 2 5 12 9 6 5 5 5 5 6 3 6 5 4 6 3 2 4 4 2 2 1 1 1 4 3 4 5 7 1 5 5 6 6 6 6
13 13 7 9 3 3 2 1 1 0 6 9 8 5 7 5 1 8 7 5 4 3 4 3 2 4 4 1 0 2 1 1 1 2 4 1 3 8 3 5 8 9 8 7 7
10 11 6 3 5 3 0 1 1 6 3 5 4 6 4 6 4 6 6 7 1 6 6 2 1 1 1 1 1 1 2 5 4 3 3 2 4 6 3 4 2 4 7 7 7
6 7 8 4 1 1 1 2 5 7 3 4 1 3 2 6 5 5 4 5 2 4 3 5 2 2 1 2 2 3 4 3 5 4 5 1 2 10 6 6 6 6 7 7 6
2 4 4 6 2 1 3 5 9 4 4 2 2 1 4 3 3 3 2 4 3 3 3 4 4 2 2 2 3 1 4 4 5 2 5 1 6 6 5 5 6 6 6 5 7
1 2 3 6 3 3 5 7 5 5 5 6 2 3 1 1 3 3 1 3 1 2 4 3 3 1 0 1 2 1 2 3 4 2 2 3 7 9 5 7 6 8 7 9 8
3 2 5 6 3 3 5 4 1 2 0 0 3 4 4 4 3 4 4 3 4 2 3 4 2 1 0 1 3 1 3 2 1 1 4 5 6 6 4 5 6 8 10 10 8
3 3 7 6 3 5 4 3 3 2 1 1 1 1 2 4 4 3 5 2 4 3 2 3 4 3 1 5 6 2 1 2 2 3 3 5 6 7 8 7 7 8 9 9 9
3 3 7 7 4 2 2 2 1 3 1 1 1 1 3 3 3 4 5 4 6 5 4 1 4 2 8 3 4 4 5 5 3 4 3 2 8 4 7 6 6 7 7 7 8
2 2 4 3 3 2 1 2 1 2 1 2 2 2 1 3 1 2 2 1 6 5 6 4 0 2 5 4 1 4 5 5 2 2 7 4 6 1 3 6 7 8 8 8 9
3 3 4 4 1 6 3 2 2 1 1 2 2 2 1 1 2 2 2 2 4 3 4 3 3 6 6 3 4 4 6 9 9 4 4 12 9 15 9 8 9 9 9 9 9
3 1 2 2 3 2 3 5 2 3 3 3 2 4 4 3 1 4 3 1 1 4 4 4 4 3 7 10 7 9 8 9 16 16 9 3 13 24 6 10 12 9 8 9 9
2 2 2 0 2 2 1 5 7 3 6 4 5 2 6 5 7 5 4 3 6 1 5 2 3 2 5 9 8 14 17 17 21 20 20 24 30 30 25 19 16 15 11 11 11
3 2 3 1 1 4 4 4 4 4 4 4 6 3 4 10 6 5 5 2 2 8 7 6 2 1 5 4 7 10 15 21 10 8 22 19 31 17 16 14 9 11 9 11 11
Wind_Direction
0 5 11 244 249 246 234 236 240 230 203 206 208 211 200 159 142 112 59 359 335 123 139 133 119 124 87 71 47 105 61 129 167 159 152 357 113 9 318 346 14 34 122 66 125
15 17 24 36 238 227 223 223 214 196 193 199 202 196 218 148 119 67 32 41 57 60 124 122 103 89 56 63 23 72 85 195 359 106 123 75 82 350 63 354 354 85 81 79 97
21 27 25 25 38 163 187 168 186 200 197 184 197 176 146 131 78 43 359 359 24 53 112 94 110 75 63 54 10 90 133 152 36 63 32 58 46 334 60 229 231 196 127 3 10
33 34 30 39 48 60 119 174 168 188 201 177 162 156 145 308 114 319 341 9 82 96 118 107 52 57 74 86 21 90 49 90 146 24 33 45 338 335 287 229 49 21 331 299 326
39 38 39 45 53 64 69 90 108 119 124 121 128 137 43 61 39 355 35 76 74 99 99 103 74 107 107 106 78 82 108 63 73 45 67 26 334 277 272 291 291 293 305 298 309
29 31 39 44 50 60 66 70 83 101 122 129 125 137 73 72 329 8 52 82 93 102 78 58 103 111 94 68 71 86 88 82 49 37 40 359 276 12 233 1 15 28 340 321 356
23 28 37 46 53 61 59 66 71 80 116 115 126 107 56 48 10 45 66 72 76 100 81 61 104 74 119 93 111 117 69 45 55 5 11 319 278 228 268 320 45 6 341 342 23
20 18 38 45 54 66 63 67 70 71 91 108 103 82 81 5 47 52 71 71 75 82 81 80 91 94 60 104 30 66 51 92 7 95 347 30 269 194 50 61 341 338 330 336 77
20 31 25 56 62 65 62 60 67 59 75 107 89 82 9 0 25 31 49 47 69 68 66 66 65 75 36 74 35 15 149 209 342 172 53 45 277 285 205 353 306 309 296 166 348
47 24 33 48 79 73 68 67 55 66 56 68 39 71 350 335 339 11 45 58 53 24 28 35 48 69 42 57 192 193 126 72 22 351 48 290 274 281 272 261 265 257 215 3 331
24 27 34 43 43 63 28 71 41 47 47 61 62 85 282 315 29 28 23 43 42 45 69 21 66 91 76 51 131 111 88 114 118 106 306 243 267 274 282 256 262 191 178 274 290
2 8 26 36 58 69 89 64 38 111 68 24 50 54 48 336 36 8 26 60 53 78 40 32 78 252 294 29 75 52 98 6 292 215 322 304 280 275 297 301 240 162 206 260 284
343 356 10 43 44 53 60 63 61 32 70 14 356 1 334 9 27 353 23 49 72 53 39 101 147 313 100 45 80 39 90 43 258 315 271 317 295 309 26 73 85 182 248 267 265
348 355 5 51 113 47 48 43 33 38 74 356 347 11 359 340 48 9 19 73 43 120 79 76 340 64 76 74 82 143 272 36 353 40 265 24 277 295 210 230 230 237 259 262 268
1 360 15 66 96 76 100 47 320 120 69 304 314 307 320 61 241 347 11 36 74 96 92 251 74 76 78 174 19 170 186 248 170 66 40 354 63 268 309 262 240 230 245 252 258
8 11 24 60 84 105 58 315 73 45 27 335 305 354 29 16 22 339 25 44 82 63 42 78 326 52 132 311 21 1 83 40 50 73 12 246 129 280 218 215 284 231 236 241 256
1 15 22 20 49 130 140 66 47 84 283 290 299 4 59 21 29 38 30 21 81 82 20 2 341 320 72 61 348 70 58 340 353 7 226 187 50 248 261 242 220 226 248 238 252
343 2 11 19 358 135 102 51 70 217 212 185 196 63 83 358 20 30 68 23 20 77 112 132 332 191 180 181 176 8 131 149 221 268 281 1 238 253 218 279 232 246 257 264 265
6 32 35 4 14 320 73 48 169 214 176 163 165 111 67 140 137 94 94 182 203 73 130 131 326 345 215 22 80 327 51 149 107 20 290 251 286 290 240 262 252 255 255 256 256
327 66 34 11 5 25 72 123 50 197 285 345 161 168 158 195 141 141 195 213 173 159 159 188 109 298 260 81 42 127 156 84 27 276 284 284 274 240 286 258 236 243 240 252 251
352 56 359 4 8 57 90 165 141 180 146 159 308 51 164 172 160 185 196 218 194 169 148 123 105 284 90 200 183 123 190 99 126 181 230 299 266 217 214 209 224 243 239 237 241
64 35 350 357 49 37 81 55 183 186 159 184 209 225 175 197 177 194 197 213 180 155 146 4 145 224 225 213 182 183 188 156 138 240 231 271 272 250 232 230 227 249 252 247 241
77 278 350 347 97 29 305 71 146 113 258 204 252 241 158 192 268 241 237 351 157 152 161 178 135 3 351 7 62 210 192 176 143 126 227 185 259 302 286 264 254 254 258 254 254
83 20 332 46 21 126 144 199 198 176 262 239 275 342 93 250 222 272 240 199 180 179 150 102 173 203 197 194 139 213 209 197 182 191 207 226 279 268 264 255 271 259 257 256 248
26 169 180 308 354 82 136 170 162 211 200 163 287 227 194 223 219 225 221 76 146 191 134 134 242 198 261 257 247 241 228 201 213 222 202 210 236 262 247 249 255 257 261 272 267
91 92 32 128 328 112 348 210 195 205 171 226 192 209 197 209 202 232 175 193 206 127 156 173 254 172 266 268 258 260 243 232 234 232 249 261 275 264 273 273 277 275 265 265 275
61 76 104 323 94 118 224 229 223 168 216 209 211 178 203 238 223 228 208 210 210 163 181 162 191 21 270 329 305 281 240 215 217 213 227 240 246 276 277 273 253 259 249 252 255